Weather in Dartmouth

United Kingdom     50°21′10″N   3°35′25″W
temp.,
°C
wind,
m/s
gust,
m/s
humid.,
%
clouds,
%
prec.,
mm/h
press.,
hPa
HPBL,
m
6 march, sat
sat600:00+6e996699 0.1 10341232
03:00+6e8869100 0.1 10331162
06:00+6ene8871100 0.1 10331101
09:00+5ene997887 0.1 1033898
12:00+5ene887392 0.1 10331031
15:00+6ene776992 0.0 10311009
18:00+6ene676655 0.0 1031881
21:00+6ene676821 0.0 10311055
7 march, sun
sun700:00+6ene556641 0.0 10311037
03:00+5ne556927 0.0 1029931
06:00+4nne557843 0.0 1029720
09:00+4nne557412 0.0 1029603
12:00+4ne44686 0.0 1029540
15:00+5e33640 0.0 1027298
18:00+5w22640 0.0 1026295
21:00+5nw44720 0.0 1027307
8 march, mon
mon800:00+4n33730 0.0 1026244
03:00+4nnw22730 0.0 1025170
06:00+4nw22710 0.0 1025162
09:00+4wnw22693 0.0 1025256
12:00+6sse116520 0.0 1025337
15:00+7wsw567262 0.0 1024701
18:00+7nnw457279 0.0 1023660
21:00+6wnw457698 0.0 1023354
9 march, tue
tue900:00+6w457199 0.0 1023490
03:00+7wsw4674100 0.0 1021551
06:00+8wsw7883100 0.1 1021589
09:00+8sw81086100 0.7 1021621
12:00+9sw10128895 0.8 1020600
15:00+10sw101389100 0.3 1018591
18:00+9sw91289100 0.4 1017503
21:00+10sw111588100 0.1 1015699
10 march, wed
wed1000:00+10ssw131890100 1.1 1013788
03:00+10sw152194100 3.9 1009683
06:00+10sw142194100 7.8 1008587
09:00+11wsw111696100 0.8 1008356
12:00+11sw121997100 2.5 1008435
15:00+11sw142093100 1.3 1006595
18:00+11sw152291100 1.4 1005693
21:00+11sw182691100 0.3 1002733